Vertical_Velocity
1 1 0 -0 0 -0 -2 -1 -1 -1 -1 -2 -2 -2 0 0 -1 -1 0 0 1 -1 -2 2 1 2 2 2 4 -7 4 -7 7 9 20 15 8 -2 3 -6 5 -4 -6 -5 -9
-1 -1 1 -0 -1 0 -1 -1 -1 -2 -1 -1 -0 -2 -3 -1 -3 -2 1 -2 -0 -0 -1 -1 -2 -6 -1 -2 -4 -1 1 -3 14 11 7 7 -6 -1 15 10 -3 30 3 -2 1
-1 -0 -0 -0 -0 -1 -2 -1 -0 -1 -0 -1 -2 -0 -1 2 -4 -3 -3 -4 -0 1 2 1 2 -2 -2 -0 -4 -8 -8 10 -7 6 7 -4 -3 2 -5 -16 36 23 2 -0 2
-1 -1 -2 -0 -1 -1 -0 -1 -2 -3 -2 0 -2 -1 -0 -1 -3 -3 -2 -1 -0 -2 -1 1 -0 -1 1 -3 4 8 5 4 -7 -5 -1 0 -0 -8 3 -22 13 8 -1 8 -1
-0 -1 -2 -2 1 -2 -3 -2 0 -1 -2 -3 -2 -3 3 -2 0 -3 1 -2 -2 -1 -0 2 -8 -0 0 -5 -2 4 0 1 8 -2 -7 -6 -5 -6 -16 -5 -13 -3 46 6 8
-1 -0 -3 1 -3 -0 -2 -3 -3 -2 1 -3 -2 -5 -2 -6 -0 -13 1 3 -1 -1 1 3 -5 1 -1 -3 -1 0 -1 -6 -6 -7 -2 -3 -4 8 -2 6 -8 1 0 27 14
-3 -2 -0 -3 -2 -4 -2 -3 -4 -0 -4 0 -1 -2 -4 -4 6 -7 -4 0 1 -3 -2 -1 -2 -0 0 -4 2 3 -5 -5 -8 -10 -19 14 -6 -11 1 1 -4 -4 -8 -7 -1
-2 -3 -3 -0 -4 -3 -3 -4 -2 -3 -3 -2 -2 -4 -12 8 -2 -0 8 -8 3 0 -2 2 4 -2 -3 1 -3 -2 -2 -9 3 3 -2 -1 -26 6 0 11 0 -2 -3 -7 -4
-4 -2 -3 -3 -1 -3 -2 -4 -2 -5 -4 -6 -1 -2 -18 -8 1 1 -2 -1 -0 -1 -1 1 -0 -0 1 -2 -4 -1 -12 1 -16 22 12 -1 -6 -3 -2 -2 -2 2 -12 -6 -9
-0 -1 -3 -2 -1 -1 -3 -1 0 -2 -6 -6 -0 -6 1 -0 -1 -9 1 -4 -1 0 1 -5 0 -1 1 3 -15 -8 1 3 7 -6 37 8 -8 5 -7 -4 2 0 2 2 4
-1 -1 -2 0 -3 -3 -1 -3 -2 -6 -2 -2 -5 -2 -5 -2 -11 6 -3 2 -4 -0 -4 -1 8 -7 -9 1 -1 1 2 -0 -5 2 21 4 3 -1 6 -13 -11 5 -5 7 3
-0 -5 0 -0 -3 -3 -1 -2 0 -4 -19 -3 -2 -18 -9 16 -9 -3 -10 5 -1 -8 -2 -1 -13 -9 -5 -1 1 3 5 -6 -14 -1 20 4 -8 2 -5 -11 -1 -6 1 7 1
1 -2 -2 1 -4 -4 -1 -1 -2 -6 -5 -12 6 -12 5 20 -11 -11 16 0 -4 -7 -6 0 -18 -0 5 -4 12 -7 1 -4 4 -13 -12 4 -25 -21 -21 -12 -0 15 -8 -0 -2
-1 2 -4 -3 1 -3 -0 -4 -2 -5 -8 -17 -9 -21 1 13 -20 -1 8 9 8 -5 12 -8 2 3 3 -4 27 3 14 -3 -1 17 -4 7 -27 -13 -4 -25 12 -5 -5 4 -3
2 3 -2 0 -1 -4 -3 -1 -2 -6 -5 7 15 3 3 -11 5 -3 4 10 -17 -17 48 -57 3 1 -0 -8 21 -25 21 14 17 5 14 -8 16 -27 11 -14 -16 25 16 2 -0
-6 -1 0 -4 -3 3 -4 1 -0 -4 -13 -10 6 26 25 12 -4 -3 -5 19 8 16 9 -12 14 25 -8 -9 4 -3 6 11 13 6 14 -6 13 -67 -7 -16 -15 -27 18 37 -2
-2 1 -3 -3 -4 -0 -1 -1 -1 -2 3 14 -2 -1 4 14 7 26 12 2 8 8 1 -5 -27 1 26 15 2 21 14 -8 2 12 -11 -7 18 -65 -6 -20 12 5 11 26 -2
-4 -3 1 1 -2 2 -1 -1 -3 2 -1 11 -1 -7 -6 -7 -2 -7 -4 -1 21 29 18 6 -11 -17 -17 19 2 13 35 10 -2 -1 -12 1 -11 -79 -12 10 3 -2 -10 21 9
-1 1 -2 -0 1 -1 -0 -4 -5 -4 11 -2 -16 -6 -6 -4 8 -6 1 -4 23 -1 -5 -8 -31 -4 1 -3 41 -50 0 11 9 8 22 -19 -15 9 -6 -6 2 33 15 8 10
-1 1 -6 -2 -3 0 -1 -7 -2 0 -3 5 -3 -5 -5 -9 -10 1 -6 13 33 10 4 7 -20 -6 -18 3 -6 3 -18 -20 4 2 -1 -11 -0 -36 -25 -7 10 15 29 17 -3
-5 1 0 -1 -0 -1 -4 -5 -2 2 4 -1 -5 -4 -1 2 -3 -4 -6 -25 27 14 10 1 3 -15 -5 4 1 1 38 -3 15 22 -0 -1 -34 24 6 -25 35 2 3 34 22
-2 0 -3 -2 3 0 -3 2 2 -2 -1 -2 -1 1 5 4 2 4 -12 13 4 8 -8 -4 -10 -11 -13 -13 11 -1 18 -18 17 -11 2 3 -55 16 18 -3 23 -1 37 -3 17
4 -3 -7 -3 -1 2 1 -3 -4 -2 1 -4 -3 -1 -1 -0 -4 -4 -2 -1 -3 -0 6 -0 1 -9 -34 -9 24 5 10 2 16 24 -20 11 -53 5 -22 -0 2 -2 3 18 58
1 -3 -1 0 1 -1 3 0 0 -1 -0 9 12 6 -5 -9 -7 -6 -13 -15 -8 -4 16 10 -0 -0 -8 -7 14 -18 -12 15 11 7 -8 -22 -44 -27 -15 -2 -19 -4 5 -2 -21
-3 -2 -4 -3 1 -1 3 -0 -4 -5 1 -1 -9 6 9 14 10 -7 -4 1 -8 -5 11 18 -1 3 -5 11 2 -12 -18 8 3 11 6 -11 -9 -25 -6 14 -1 15 23 24 6
-2 3 -2 -1 -8 0 3 -1 -1 -7 0 -6 -1 -1 1 9 12 7 -9 7 -0 -12 4 13 -3 0 -12 16 -5 -15 -7 8 7 3 0 12 -31 41 11 6 -9 0 -4 36 -2
1 1 -2 -6 -0 1 -4 -1 1 8 2 2 -0 1 -4 -3 2 0 2 0 -1 -3 -14 1 -5 -1 -16 -11 -2 -20 13 -3 -3 19 16 -9 -2 23 1 20 0 -17 -8 8 33
Height
3161 3163 3164 3165 3167 3168 3169 3170 3171 3172 3172 3173 3173 3172 3173 3173 3172 3171 3171 3172 3172 3171 3172 3172 3173 3174 3176 3177 3178 3177 3177 3175 3176 3177 3177 3175 3174 3175 3176 3176 3175 3173 3171 3171 3172
3160 3161 3163 3164 3165 3166 3167 3168 3169 3170 3171 3171 3172 3172 3172 3172 3172 3171 3172 3170 3171 3171 3171 3172 3171 3171 3174 3175 3176 3177 3175 3174 3177 3177 3175 3174 3173 3173 3175 3175 3175 3170 3168 3169 3170
3157 3159 3160 3161 3162 3163 3164 3165 3166 3167 3168 3169 3169 3170 3170 3170 3171 3170 3170 3170 3171 3171 3171 3171 3171 3171 3173 3175 3176 3176 3173 3174 3173 3174 3173 3172 3171 3171 3171 3171 3174 3174 3169 3169 3169
3155 3156 3157 3159 3160 3160 3161 3162 3163 3164 3165 3166 3167 3168 3168 3169 3171 3168 3169 3170 3171 3171 3171 3170 3171 3172 3172 3172 3174 3175 3174 3173 3171 3170 3169 3169 3168 3168 3169 3168 3168 3172 3169 3168 3167
3153 3154 3155 3156 3157 3157 3158 3158 3159 3160 3161 3162 3163 3164 3166 3166 3167 3166 3168 3168 3169 3170 3170 3171 3169 3172 3171 3170 3169 3168 3170 3169 3168 3167 3166 3166 3164 3164 3163 3165 3165 3166 3169 3167 3164
3149 3150 3151 3152 3153 3154 3155 3155 3156 3156 3157 3158 3159 3160 3162 3165 3162 3163 3165 3167 3167 3168 3169 3169 3169 3170 3169 3168 3168 3168 3166 3164 3163 3162 3163 3162 3161 3162 3160 3160 3160 3160 3162 3164 3162
3144 3145 3146 3148 3149 3150 3152 3152 3153 3153 3153 3153 3154 3155 3156 3162 3160 3160 3161 3163 3165 3165 3165 3166 3166 3167 3166 3165 3165 3164 3161 3159 3158 3159 3157 3160 3157 3158 3157 3156 3155 3155 3156 3158 3159
3138 3139 3141 3143 3144 3146 3147 3148 3149 3150 3150 3150 3150 3149 3148 3155 3155 3157 3158 3158 3161 3161 3162 3163 3163 3163 3163 3163 3161 3161 3160 3155 3154 3154 3153 3156 3152 3156 3154 3154 3153 3152 3153 3153 3153
3133 3133 3135 3137 3139 3140 3141 3143 3144 3146 3146 3146 3147 3145 3146 3148 3151 3151 3153 3154 3155 3157 3158 3159 3160 3159 3160 3160 3159 3157 3155 3154 3151 3152 3152 3151 3149 3151 3151 3151 3151 3149 3148 3147 3146
3126 3127 3129 3130 3132 3134 3136 3137 3136 3139 3139 3141 3143 3143 3145 3146 3146 3144 3150 3150 3151 3152 3153 3154 3155 3154 3155 3157 3153 3152 3152 3151 3151 3149 3152 3150 3147 3147 3148 3147 3146 3145 3143 3141 3141
3121 3122 3124 3125 3125 3128 3130 3132 3134 3133 3132 3135 3135 3135 3138 3142 3141 3143 3146 3148 3147 3148 3148 3151 3150 3146 3149 3151 3150 3150 3149 3146 3145 3145 3147 3145 3143 3142 3142 3141 3139 3139 3139 3137 3135
3117 3118 3119 3120 3121 3122 3123 3125 3125 3126 3124 3127 3129 3126 3133 3137 3132 3135 3140 3144 3142 3142 3145 3147 3139 3144 3145 3146 3145 3145 3143 3142 3142 3140 3141 3138 3134 3134 3136 3134 3133 3133 3133 3133 3130
3112 3113 3115 3116 3117 3117 3118 3120 3120 3119 3117 3117 3121 3119 3124 3127 3124 3128 3133 3136 3136 3135 3138 3138 3133 3139 3141 3140 3140 3140 3138 3139 3139 3138 3134 3133 3125 3128 3129 3127 3125 3123 3125 3125 3124
3108 3109 3110 3112 3115 3113 3116 3117 3117 3116 3115 3112 3111 3112 3114 3116 3113 3122 3124 3127 3127 3127 3130 3129 3130 3132 3134 3131 3138 3134 3136 3136 3134 3134 3129 3132 3120 3122 3123 3119 3119 3118 3117 3118 3118
3103 3105 3106 3108 3109 3110 3113 3114 3114 3115 3116 3114 3113 3111 3111 3111 3114 3117 3119 3121 3118 3121 3126 3117 3122 3125 3125 3125 3131 3128 3129 3129 3127 3124 3125 3118 3123 3110 3116 3114 3111 3113 3114 3112 3110
3100 3101 3103 3104 3106 3108 3108 3110 3112 3116 3112 3111 3112 3112 3113 3112 3112 3113 3116 3117 3116 3115 3114 3112 3117 3120 3121 3121 3120 3122 3119 3118 3118 3117 3113 3107 3115 3108 3108 3109 3108 3106 3106 3106 3103
3098 3099 3100 3102 3104 3105 3106 3108 3111 3112 3110 3110 3108 3106 3107 3108 3108 3110 3110 3110 3111 3109 3104 3108 3107 3107 3113 3112 3113 3114 3115 3111 3111 3105 3101 3105 3107 3101 3100 3102 3100 3099 3098 3098 3097
3094 3095 3096 3097 3100 3101 3103 3106 3108 3109 3108 3107 3104 3104 3106 3106 3105 3104 3104 3105 3107 3106 3101 3099 3098 3101 3105 3107 3106 3106 3107 3104 3099 3099 3097 3099 3093 3090 3095 3095 3096 3090 3090 3091 3091
3090 3092 3094 3097 3098 3100 3103 3102 3104 3107 3108 3106 3103 3103 3105 3106 3105 3102 3101 3105 3104 3100 3103 3098 3091 3090 3096 3098 3101 3098 3095 3098 3094 3092 3089 3087 3086 3089 3090 3089 3092 3093 3088 3086 3086
3088 3090 3091 3094 3096 3097 3099 3100 3102 3105 3105 3105 3105 3106 3105 3104 3102 3102 3101 3100 3104 3100 3098 3099 3091 3087 3084 3087 3088 3092 3096 3094 3090 3086 3088 3084 3077 3073 3084 3083 3087 3087 3088 3084 3081
3085 3086 3090 3091 3092 3094 3094 3095 3099 3103 3105 3104 3103 3102 3103 3102 3102 3101 3098 3095 3098 3097 3097 3094 3094 3079 3081 3082 3086 3085 3086 3090 3088 3085 3086 3084 3079 3074 3079 3080 3081 3084 3083 3081 3075
3081 3081 3086 3088 3091 3088 3090 3094 3097 3096 3099 3098 3097 3098 3099 3099 3098 3097 3094 3096 3095 3095 3093 3090 3089 3080 3076 3074 3079 3081 3082 3081 3084 3084 3084 3082 3071 3068 3068 3069 3069 3071 3076 3077 3074
3077 3077 3084 3084 3085 3086 3088 3089 3090 3092 3095 3095 3094 3094 3094 3094 3092 3088 3088 3089 3089 3091 3090 3089 3086 3080 3067 3069 3072 3072 3072 3074 3073 3075 3076 3083 3065 3058 3063 3063 3067 3068 3069 3068 3070
3074 3074 3079 3078 3080 3081 3083 3083 3085 3087 3088 3089 3088 3089 3089 3088 3089 3083 3083 3083 3084 3084 3084 3084 3082 3081 3076 3073 3074 3070 3064 3068 3075 3072 3067 3067 3057 3050 3055 3061 3060 3061 3064 3065 3062
3069 3070 3073 3072 3075 3077 3079 3079 3079 3080 3081 3083 3081 3083 3084 3083 3083 3081 3079 3074 3076 3078 3078 3079 3073 3074 3069 3069 3068 3065 3060 3058 3065 3063 3066 3054 3063 3045 3047 3052 3055 3052 3056 3059 3059
3064 3067 3068 3069 3071 3072 3073 3072 3074 3076 3077 3076 3076 3076 3077 3076 3078 3074 3070 3070 3068 3071 3071 3071 3066 3065 3057 3064 3062 3056 3053 3056 3055 3055 3059 3056 3050 3043 3048 3048 3046 3048 3046 3046 3049
3060 3061 3061 3063 3066 3066 3067 3068 3069 3071 3071 3072 3072 3070 3069 3071 3070 3065 3064 3064 3064 3063 3066 3067 3065 3061 3052 3061 3057 3050 3048 3052 3051 3053 3054 3046 3036 3041 3038 3043 3046 3046 3045 3045 3043